Time,TemperatureF,DewpointF,PressureIn,WindDirection,WindDirectionDegrees,WindSpeedMPH,WindSpeedGustMPH,Humidity,HourlyPrecipIn,Conditions,Clouds,dailyrainin,SoftwareType,DateUTC
2013-05-10 00:13:00,70.8,69.0,30.69,East,86,0.0,-999.0,94,-99.99,,,0.00,weatherlink.com 1.10,2013-05-10 05:13:00,
2013-05-10 00:28:00,70.8,69.0,30.71,East,86,0.0,-999.0,94,-99.99,,,0.00,weatherlink.com 1.10,2013-05-10 05:28:00,
2013-05-10 00:43:00,70.9,69.0,30.72,East,86,0.0,-999.0,94,-99.99,,,0.00,weatherlink.com 1.10,2013-05-10 05:43:00,
2013-05-10 00:58:00,71.1,69.0,30.71,East,86,0.0,-999.0,94,-99.99,,,0.00,weatherlink.com 1.10,2013-05-10 05:58:00,
2013-05-10 01:13:00,71.8,70.0,30.70,South,173,3.0,-999.0,94,-99.99,,,0.00,weatherlink.com 1.10,2013-05-10 06:13:00,
2013-05-10 01:28:00,71.7,70.0,30.70,SSE,158,4.0,-999.0,94,-99.99,,,0.00,weatherlink.com 1.10,2013-05-10 06:28:00,
2013-05-10 01:43:00,71.6,70.0,30.65,South,175,19.0,-999.0,94,-99.99,,,0.00,weatherlink.com 1.10,2013-05-10 06:43:00,
2013-05-10 01:58:00,71.7,70.0,30.66,SSE,163,13.0,-999.0,94,-99.99,,,0.00,weatherlink.com 1.10,2013-05-10 06:58:00,
2013-05-10 02:13:00,71.7,70.0,30.61,SSE,158,13.0,-999.0,94,-99.99,,,0.01,weatherlink.com 1.10,2013-05-10 07:13:00,
2013-05-10 02:28:00,71.8,70.0,30.52,ENE,66,4.0,-999.0,93,-99.99,,,0.01,weatherlink.com 1.10,2013-05-10 07:28:00,
2013-05-10 02:43:00,72.8,70.0,30.50,South,173,2.0,-999.0,89,-99.99,,,0.01,weatherlink.com 1.10,2013-05-10 07:43:00,
2013-05-10 02:58:00,72.8,68.0,30.54,South,173,10.0,-999.0,84,-99.99,,,0.01,weatherlink.com 1.10,2013-05-10 07:58:00,
2013-05-10 03:13:00,72.6,68.0,30.54,South,191,6.0,-999.0,86,-99.99,,,0.01,weatherlink.com 1.10,2013-05-10 08:13:00,
2013-05-10 03:28:00,71.9,68.0,30.53,South,175,0.0,-999.0,87,-99.99,,,0.01,weatherlink.com 1.10,2013-05-10 08:28:00,
2013-05-10 03:43:00,70.6,67.0,30.55,SSW,212,1.0,-999.0,89,-99.99,,,0.01,weatherlink.com 1.10,2013-05-10 08:43:00,
2013-05-10 03:58:00,70.1,67.0,30.57,SW,225,3.0,-999.0,89,-99.99,,,0.01,weatherlink.com 1.10,2013-05-10 08:58:00,
2013-05-10 04:13:00,69.7,67.0,30.61,South,183,0.0,-999.0,90,-99.99,,,0.01,weatherlink.com 1.10,2013-05-10 09:13:00,
2013-05-10 04:28:00,69.1,66.0,30.63,South,183,0.0,-999.0,89,-99.99,,,0.01,weatherlink.com 1.10,2013-05-10 09:28:00,
2013-05-10 04:43:00,68.4,65.0,30.64,South,183,0.0,-999.0,89,-99.99,,,0.01,weatherlink.com 1.10,2013-05-10 09:43:00,
2013-05-10 04:59:00,67.7,65.0,30.65,South,183,0.0,-999.0,90,-99.99,,,0.01,weatherlink.com 1.10,2013-05-10 09:59:00,
2013-05-10 05:14:00,67.4,65.0,30.66,South,183,0.0,-999.0,91,-99.99,,,0.01,weatherlink.com 1.10,2013-05-10 10:14:00,
2013-05-10 05:29:00,67.8,65.0,30.65,South,173,0.0,-999.0,91,-99.99,,,0.01,weatherlink.com 1.10,2013-05-10 10:29:00,
2013-05-10 05:44:00,68.4,66.0,30.65,ENE,77,1.0,-999.0,91,-99.99,,,0.01,weatherlink.com 1.10,2013-05-10 10:44:00,
2013-05-10 05:59:00,68.8,66.0,30.66,ENE,77,0.0,-999.0,90,-99.99,,,0.01,weatherlink.com 1.10,2013-05-10 10:59:00,
2013-05-10 06:14:00,69.0,66.0,30.66,ENE,74,0.0,-999.0,90,-99.99,,,0.01,weatherlink.com 1.10,2013-05-10 11:14:00,
2013-05-10 06:29:00,69.0,66.0,30.68,ENE,71,0.0,-999.0,90,-99.99,,,0.01,weatherlink.com 1.10,2013-05-10 11:29:00,
2013-05-10 06:44:00,69.2,66.0,30.68,ENE,71,0.0,-999.0,90,-99.99,,,0.01,weatherlink.com 1.10,2013-05-10 11:44:00,
2013-05-10 06:59:00,69.2,66.0,30.69,ENE,71,0.0,-999.0,90,-99.99,,,0.01,weatherlink.com 1.10,2013-05-10 11:59:00,
2013-05-10 07:14:00,69.2,66.0,30.72,ENE,67,0.0,-999.0,90,-99.99,,,0.01,weatherlink.com 1.10,2013-05-10 12:14:00,
2013-05-10 07:29:00,69.2,66.0,30.74,ENE,68,0.0,-999.0,90,-99.99,,,0.01,weatherlink.com 1.10,2013-05-10 12:29:00,
2013-05-10 07:44:00,69.2,66.0,30.72,ENE,65,0.0,-999.0,90,-99.99,,,0.01,weatherlink.com 1.10,2013-05-10 12:44:00,
2013-05-10 07:59:00,68.7,66.0,30.73,NW,308,3.0,-999.0,90,-99.99,,,0.01,weatherlink.com 1.10,2013-05-10 12:59:00,
2013-05-10 08:14:00,68.3,66.0,30.75,WNW,302,0.0,-999.0,91,-99.99,,,0.02,weatherlink.com 1.10,2013-05-10 13:14:00,
2013-05-10 08:29:00,68.4,66.0,30.72,WNW,302,2.0,-999.0,92,-99.99,,,0.02,weatherlink.com 1.10,2013-05-10 13:29:00,
2013-05-10 08:44:00,68.4,66.0,30.72,West,266,0.0,-999.0,92,-99.99,,,0.02,weatherlink.com 1.10,2013-05-10 13:44:00,
2013-05-10 08:59:00,68.4,66.0,30.73,West,266,1.0,-999.0,92,-99.99,,,0.02,weatherlink.com 1.10,2013-05-10 13:59:00,
2013-05-10 09:14:00,67.8,66.0,30.70,NW,309,0.0,-999.0,92,-99.99,,,0.02,weatherlink.com 1.10,2013-05-10 14:14:00,
2013-05-10 09:28:00,67.1,65.0,30.71,NW,312,4.0,-999.0,92,-99.99,,,0.02,weatherlink.com 1.10,2013-05-10 14:28:00,
2013-05-10 09:43:00,67.0,65.0,30.72,WNW,296,1.0,-999.0,92,-99.99,,,0.02,weatherlink.com 1.10,2013-05-10 14:43:00,
2013-05-10 09:58:00,67.8,66.0,30.75,NW,317,4.0,-999.0,93,-99.99,,,0.43,weatherlink.com 1.10,2013-05-10 14:58:00,
2013-05-10 10:13:00,67.8,66.0,30.78,SSW,200,0.0,-999.0,93,-99.99,,,0.46,weatherlink.com 1.10,2013-05-10 15:13:00,
2013-05-10 10:29:00,67.9,66.0,30.80,South,191,2.0,-999.0,93,-99.99,,,0.47,weatherlink.com 1.10,2013-05-10 15:29:00,
2013-05-10 10:44:00,67.9,66.0,30.82,SSE,167,3.0,-999.0,94,-99.99,,,0.49,weatherlink.com 1.10,2013-05-10 15:44:00,
2013-05-10 10:59:00,67.6,66.0,30.76,ENE,74,4.0,-999.0,94,-99.99,,,0.51,weatherlink.com 1.10,2013-05-10 15:59:00,
2013-05-10 11:14:00,67.1,65.0,30.65,NE,55,5.0,-999.0,94,-99.99,,,0.54,weatherlink.com 1.10,2013-05-10 16:14:00,
2013-05-10 11:28:00,67.3,66.0,30.64,East,86,11.0,-999.0,94,-99.99,,,0.55,weatherlink.com 1.10,2013-05-10 16:28:00,
2013-05-10 11:43:00,68.6,67.0,30.67,East,92,2.0,-999.0,94,-99.99,,,0.55,weatherlink.com 1.10,2013-05-10 16:43:00,
2013-05-10 11:58:00,70.6,69.0,30.66,NW,304,4.0,-999.0,94,-99.99,,,0.55,weatherlink.com 1.10,2013-05-10 16:58:00,
2013-05-10 12:13:00,72.1,69.0,30.66,NW,311,2.0,-999.0,91,-99.99,,,0.55,weatherlink.com 1.10,2013-05-10 17:13:00,
2013-05-10 12:28:00,73.6,70.0,30.66,ENE,69,0.0,-999.0,87,-99.99,,,0.55,weatherlink.com 1.10,2013-05-10 17:28:00,
2013-05-10 12:43:00,75.8,69.0,30.67,ENE,69,3.0,-999.0,80,-99.99,,,0.55,weatherlink.com 1.10,2013-05-10 17:43:00,
2013-05-10 12:58:00,76.9,68.0,30.67,ENE,63,3.0,-999.0,75,-99.99,,,0.55,weatherlink.com 1.10,2013-05-10 17:58:00,
2013-05-10 13:13:00,77.1,68.0,30.67,ENE,63,1.0,-999.0,73,-99.99,,,0.55,weatherlink.com 1.10,2013-05-10 18:13:00,
2013-05-10 13:44:00,78.3,68.0,30.66,East,84,1.0,-999.0,71,-99.99,,,0.55,weatherlink.com 1.10,2013-05-10 18:44:00,
2013-05-10 13:59:00,78.8,68.0,30.67,South,184,0.0,-999.0,69,-99.99,,,0.55,weatherlink.com 1.10,2013-05-10 18:59:00,
2013-05-10 14:14:00,79.6,68.0,30.67,ESE,109,0.0,-999.0,68,-99.99,,,0.55,weatherlink.com 1.10,2013-05-10 19:14:00,
2013-05-10 14:28:00,80.8,69.0,30.69,South,180,7.0,-999.0,67,-99.99,,,0.55,weatherlink.com 1.10,2013-05-10 19:28:00,
2013-05-10 14:43:00,80.0,68.0,30.69,South,180,4.0,-999.0,67,-99.99,,,0.55,weatherlink.com 1.10,2013-05-10 19:43:00,
2013-05-10 14:58:00,78.5,68.0,30.69,South,169,9.0,-999.0,70,-99.99,,,0.55,weatherlink.com 1.10,2013-05-10 19:58:00,
2013-05-10 15:13:00,77.5,67.0,30.66,ENE,65,5.0,-999.0,71,-99.99,,,0.55,weatherlink.com 1.10,2013-05-10 20:13:00,
2013-05-10 15:28:00,79.1,69.0,30.68,SSE,165,3.0,-999.0,70,-99.99,,,0.55,weatherlink.com 1.10,2013-05-10 20:28:00,
2013-05-10 15:43:00,80.0,67.0,30.67,NW,318,0.0,-999.0,65,-99.99,,,0.55,weatherlink.com 1.10,2013-05-10 20:43:00,
2013-05-10 15:58:00,80.2,68.0,30.66,NW,322,3.0,-999.0,67,-99.99,,,0.55,weatherlink.com 1.10,2013-05-10 20:58:00,
2013-05-10 16:13:00,80.6,67.0,30.66,ENE,61,1.0,-999.0,64,-99.99,,,0.55,weatherlink.com 1.10,2013-05-10 21:13:00,
2013-05-10 16:29:00,81.4,68.0,30.64,SE,129,2.0,-999.0,64,-99.99,,,0.55,weatherlink.com 1.10,2013-05-10 21:29:00,
2013-05-10 16:44:00,81.3,66.0,30.64,East,82,2.0,-999.0,61,-99.99,,,0.55,weatherlink.com 1.10,2013-05-10 21:44:00,
2013-05-10 16:59:00,81.2,66.0,30.64,East,81,3.0,-999.0,60,-99.99,,,0.55,weatherlink.com 1.10,2013-05-10 21:59:00,
2013-05-10 17:14:00,81.0,67.0,30.64,East,92,4.0,-999.0,63,-99.99,,,0.55,weatherlink.com 1.10,2013-05-10 22:14:00,
2013-05-10 17:29:00,80.5,67.0,30.65,NE,56,0.0,-999.0,64,-99.99,,,0.55,weatherlink.com 1.10,2013-05-10 22:29:00,
2013-05-10 17:44:00,80.2,67.0,30.65,ENE,78,4.0,-999.0,65,-99.99,,,0.55,weatherlink.com 1.10,2013-05-10 22:44:00,
2013-05-10 17:59:00,79.3,68.0,30.64,SE,140,2.0,-999.0,68,-99.99,,,0.55,weatherlink.com 1.10,2013-05-10 22:59:00,
2013-05-10 18:14:00,78.7,67.0,30.65,East,80,2.0,-999.0,68,-99.99,,,0.55,weatherlink.com 1.10,2013-05-10 23:14:00,
2013-05-10 18:29:00,78.0,67.0,30.64,East,101,2.0,-999.0,69,-99.99,,,0.55,weatherlink.com 1.10,2013-05-10 23:29:00,
2013-05-10 18:44:00,77.5,67.0,30.64,East,90,2.0,-999.0,71,-99.99,,,0.55,weatherlink.com 1.10,2013-05-10 23:44:00,
2013-05-10 18:59:00,76.8,67.0,30.64,ENE,59,3.0,-999.0,72,-99.99,,,0.55,weatherlink.com 1.10,2013-05-10 23:59:00,
2013-05-10 19:14:00,76.3,67.0,30.64,ENE,67,2.0,-999.0,74,-99.99,,,0.55,weatherlink.com 1.10,2013-05-11 00:14:00,
2013-05-10 19:29:00,75.7,67.0,30.65,East,80,1.0,-999.0,74,-99.99,,,0.55,weatherlink.com 1.10,2013-05-11 00:29:00,
2013-05-10 19:44:00,75.2,67.0,30.66,East,85,0.0,-999.0,76,-99.99,,,0.55,weatherlink.com 1.10,2013-05-11 00:44:00,
2013-05-10 19:59:00,74.6,67.0,30.67,East,80,0.0,-999.0,76,-99.99,,,0.55,weatherlink.com 1.10,2013-05-11 00:59:00,
2013-05-10 20:14:00,74.0,66.0,30.68,East,80,0.0,-999.0,77,-99.99,,,0.55,weatherlink.com 1.10,2013-05-11 01:14:00,
2013-05-10 20:29:00,73.5,66.0,30.71,East,80,0.0,-999.0,78,-99.99,,,0.55,weatherlink.com 1.10,2013-05-11 01:29:00,
2013-05-10 20:44:00,72.7,66.0,30.72,East,80,0.0,-999.0,80,-99.99,,,0.55,weatherlink.com 1.10,2013-05-11 01:44:00,
2013-05-10 20:59:00,72.0,66.0,30.71,East,80,0.0,-999.0,82,-99.99,,,0.55,weatherlink.com 1.10,2013-05-11 01:59:00,
2013-05-10 21:14:00,71.6,66.0,30.72,East,80,0.0,-999.0,82,-99.99,,,0.55,weatherlink.com 1.10,2013-05-11 02:14:00,
2013-05-10 21:29:00,71.3,66.0,30.74,East,80,0.0,-999.0,83,-99.99,,,0.55,weatherlink.com 1.10,2013-05-11 02:29:00,
2013-05-10 21:44:00,71.0,67.0,30.76,East,81,0.0,-999.0,86,-99.99,,,0.55,weatherlink.com 1.10,2013-05-11 02:44:00,
2013-05-10 21:59:00,70.9,67.0,30.79,SE,135,0.0,-999.0,87,-99.99,,,0.55,weatherlink.com 1.10,2013-05-11 02:59:00,
2013-05-10 22:14:00,70.6,67.0,30.80,SE,135,0.0,-999.0,87,-99.99,,,0.56,weatherlink.com 1.10,2013-05-11 03:14:00,
2013-05-10 22:29:00,69.9,67.0,30.81,South,190,1.0,-999.0,89,-99.99,,,0.62,weatherlink.com 1.10,2013-05-11 03:29:00,
2013-05-10 22:44:00,69.8,67.0,30.82,South,189,2.0,-999.0,91,-99.99,,,0.69,weatherlink.com 1.10,2013-05-11 03:44:00,
2013-05-10 22:59:00,66.3,63.0,30.85,South,171,3.0,-999.0,89,-99.99,,,0.80,weatherlink.com 1.10,2013-05-11 03:59:00,
2013-05-10 23:14:00,64.4,62.0,30.85,SW,215,6.0,-999.0,91,-99.99,,,1.11,weatherlink.com 1.10,2013-05-11 04:14:00,
2013-05-10 23:29:00,64.5,62.0,30.84,NW,319,3.0,-999.0,92,-99.99,,,1.29,weatherlink.com 1.10,2013-05-11 04:29:00,
2013-05-10 23:44:00,64.5,63.0,30.82,NNW,329,3.0,-999.0,93,-99.99,,,1.32,weatherlink.com 1.10,2013-05-11 04:44:00,